NORTHEAST SUFFOLK  -  Frost Advisory Frost Advisory        NORTHWEST SUFFOLK  -  Frost Advisory Frost Advisory        SOUTHEAST SUFFOLK  -  Frost Advisory Frost Advisory        SOUTHWEST SUFFOLK  -  Frost Advisory Frost Advisory      

Active alerts

Northwest Suffolk
  Details for Northwest Suffolk Frost Advisory
Southwest Suffolk
  Details for Southwest Suffolk Frost Advisory
Northeast Suffolk
  Details for Northeast Suffolk Frost Advisory
Southeast Suffolk
  Details for Southeast Suffolk Frost Advisory


WXM80 ListenWXM80 Stop

You find our weather info also at:

UK Metoffice

WeatherCloud

Weather Underground

Northeastern Weather Network

AWEKAS

Citizen Weather Observer Program (CWOP)

HAMweather, WeatherForYou, PWS Weather


Weather Underground History page Text

Daily Summary for February 8, 2017 Units:  Metric    English   Both
« Previous Day
Next Day »
Daily Weekly Monthly Yearly Custom
  High: Low: Average:
Temperature: 15.6 °C 3.2 °C 7.3 °C
Dew Point: 11.4 °C 1.6 °C 4.4 °C
Humidity: 99 % 57 % 84 %
Wind Speed: 11.4 km/h 0 km/h 2.9 km/h
Wind Gust: 19.3 km/h - -
Wind:- - SSW
Pressure: 1005.6 hPa 998.9 hPa -
Precipitation: 0 mm    
Historical Graphs
 
 
Tabular Data for February 8, 2017
Time Temperature Dew Point Pressure Wind Wind Speed Wind Gust Humidity Rainfall Rate (Hourly)
00:03 3.8 °C 3.5 °C 1001.9 hPa SE 1.8 km/h 5.6 km/h 98 % 0 mm
00:08 3.8 °C 3.5 °C 1001.6 hPa ENE 6.3 km/h 9.3 km/h 98 % 0 mm
00:13 3.8 °C 3.5 °C 1001.6 hPa ENE 3.9 km/h 5.6 km/h 98 % 0 mm
00:18 3.8 °C 3.5 °C 1001.2 hPa ENE 4.7 km/h 5.6 km/h 98 % 0 mm
00:23 3.8 °C 3.5 °C 1001.2 hPa East 3.7 km/h 5.6 km/h 98 % 0 mm
00:28 3.7 °C 3.4 °C 1000.9 hPa NE 3.9 km/h 5.6 km/h 98 % 0 mm
00:33 3.7 °C 3.4 °C 1000.9 hPa ENE 4.7 km/h 5.6 km/h 98 % 0 mm
00:38 3.7 °C 3.4 °C 1000.9 hPa ENE 4.5 km/h 5.6 km/h 98 % 0 mm
00:43 3.7 °C 3.4 °C 1000.9 hPa NE 2.6 km/h 2.6 km/h 98 % 0 mm
00:48 3.7 °C 3.4 °C 1000.6 hPa ENE 1.6 km/h 6.4 km/h 98 % 0 mm
00:53 3.7 °C 3.4 °C 1000.6 hPa ENE 3.2 km/h 4.8 km/h 98 % 0 mm
00:58 3.7 °C 3.4 °C 1000.9 hPa ENE 0.8 km/h 5.6 km/h 98 % 0 mm
01:04 3.7 °C 3.4 °C 1000.6 hPa ENE 0.3 km/h 1.9 km/h 98 % 0 mm
01:09 3.7 °C 3.4 °C 1000.6 hPa ENE 1.4 km/h 3.7 km/h 98 % 0 mm
01:14 3.7 °C 3.4 °C 1000.6 hPa Calm     98 % 0 mm
01:19 3.7 °C 3.4 °C 1000.6 hPa Calm     98 % 0 mm
01:24 3.6 °C 3.3 °C 1000.6 hPa ENE 0.2 km/h 3.2 km/h 98 % 0 mm
01:29 3.6 °C 3.3 °C 1000.2 hPa Calm     98 % 0 mm
01:34 3.6 °C 3.3 °C 1000.2 hPa Calm   1.9 km/h 98 % 0 mm
01:39 3.5 °C 3.2 °C 1000.2 hPa Calm     98 % 0 mm
01:44 3.5 °C 3.2 °C 999.9 hPa Calm     98 % 0 mm
01:49 3.5 °C 3.2 °C 999.9 hPa ENE 1.1 km/h 3.7 km/h 98 % 0 mm
01:54 3.5 °C 3.2 °C 1000.2 hPa Calm   1.9 km/h 98 % 0 mm
01:59 3.5 °C 3.2 °C 999.9 hPa Calm   1.9 km/h 98 % 0 mm
02:04 3.5 °C 3.2 °C 999.9 hPa ENE 2.7 km/h 4.8 km/h 98 % 0 mm
02:09 3.6 °C 3.3 °C 999.9 hPa Calm   1.9 km/h 98 % 0 mm
02:14 3.6 °C 3.3 °C 999.9 hPa NNE 0.6 km/h 1.9 km/h 98 % 0 mm
02:19 3.6 °C 3.3 °C 999.9 hPa Calm     98 % 0 mm
02:24 3.6 °C 3.3 °C 999.9 hPa Calm     98 % 0 mm
02:29 3.7 °C 3.4 °C 999.9 hPa Calm     98 % 0 mm
02:34 3.7 °C 3.4 °C 999.9 hPa Calm     98 % 0 mm
02:39 3.7 °C 3.4 °C 999.9 hPa Calm     98 % 0 mm
02:44 3.7 °C 3.4 °C 999.9 hPa Calm     98 % 0 mm
02:49 3.7 °C 3.4 °C 999.9 hPa Calm     98 % 0 mm
02:55 3.7 °C 3.4 °C 999.5 hPa Calm     98 % 0 mm
03:00 3.7 °C 3.4 °C 999.5 hPa Calm     98 % 0 mm
03:05 3.7 °C 3.4 °C 999.9 hPa Calm     98 % 0 mm
03:10 3.7 °C 3.4 °C 999.5 hPa Calm     98 % 0 mm
03:15 3.7 °C 3.4 °C 999.5 hPa NNE 0.3 km/h 1.9 km/h 98 % 0 mm
03:20 3.8 °C 3.5 °C 999.5 hPa Calm     98 % 0 mm
03:25 3.8 °C 3.5 °C 999.5 hPa Calm     98 % 0 mm
03:30 3.8 °C 3.5 °C 999.5 hPa Calm     98 % 0 mm
03:35 3.8 °C 3.5 °C 999.5 hPa Calm     98 % 0 mm
03:40 3.8 °C 3.6 °C 999.5 hPa Calm     98 % 0 mm
03:45 3.8 °C 3.6 °C 999.5 hPa NNE 1.4 km/h 3.7 km/h 98 % 0 mm
03:50 3.8 °C 3.6 °C 999.9 hPa Calm   1.9 km/h 98 % 0 mm
03:55 3.8 °C 3.6 °C 999.5 hPa Calm     98 % 0 mm
04:00 3.8 °C 3.6 °C 999.9 hPa Calm     98 % 0 mm
04:05 3.9 °C 3.6 °C 999.5 hPa Calm     98 % 0 mm
04:10 3.9 °C 3.6 °C 999.2 hPa Calm     98 % 0 mm
04:15 3.9 °C 3.6 °C 999.2 hPa NNE 0.5 km/h 1.6 km/h 98 % 0 mm
04:20 3.9 °C 3.6 °C 999.2 hPa Calm   1.9 km/h 98 % 0 mm
04:25 3.9 °C 3.6 °C 999.5 hPa Calm     98 % 0 mm
04:30 3.9 °C 3.6 °C 999.2 hPa Calm     98 % 0 mm
04:35 3.8 °C 3.6 °C 999.2 hPa Calm     98 % 0 mm
04:40 3.8 °C 3.6 °C 999.2 hPa NNE 0.2 km/h 1.9 km/h 98 % 0 mm
04:45 3.8 °C 3.6 °C 999.2 hPa NNE 0.6 km/h 1.9 km/h 98 % 0 mm
04:50 3.8 °C 3.6 °C 999.2 hPa Calm   1.9 km/h 98 % 0 mm
04:55 3.8 °C 3.5 °C 999.2 hPa Calm   1.6 km/h 98 % 0 mm
05:01 3.8 °C 3.5 °C 999.2 hPa Calm   1.9 km/h 98 % 0 mm
05:06 3.7 °C 3.4 °C 999.2 hPa Calm     98 % 0 mm
05:11 3.7 °C 3.4 °C 998.9 hPa Calm     98 % 0 mm
05:16 3.7 °C 3.4 °C 998.9 hPa Calm     98 % 0 mm
05:21 3.7 °C 3.4 °C 998.9 hPa Calm     98 % 0 mm
05:26 3.7 °C 3.4 °C 998.9 hPa Calm     98 % 0 mm
05:31 3.6 °C 3.3 °C 998.9 hPa Calm     98 % 0 mm
05:36 3.6 °C 3.3 °C 998.9 hPa Calm     98 % 0 mm
05:41 3.6 °C 3.3 °C 999.2 hPa Calm     98 % 0 mm
05:46 3.6 °C 3.3 °C 999.2 hPa Calm     98 % 0 mm
05:51 3.6 °C 3.3 °C 999.2 hPa NNE 0.2 km/h 1.9 km/h 98 % 0 mm
05:56 3.6 °C 3.3 °C 999.2 hPa Calm     98 % 0 mm
06:01 3.6 °C 3.3 °C 999.2 hPa NNE 0.5 km/h 1.6 km/h 98 % 0 mm
06:06 3.6 °C 3.3 °C 999.5 hPa Calm     98 % 0 mm
06:11 3.6 °C 3.3 °C 999.2 hPa Calm     98 % 0 mm
06:16 3.6 °C 3.3 °C 999.5 hPa Calm     98 % 0 mm
06:21 3.6 °C 3.3 °C 999.5 hPa Calm     98 % 0 mm
06:26 3.5 °C 3.2 °C 999.9 hPa Calm     98 % 0 mm
06:27 3.5 °C 3.2 °C 999.9 hPa Calm     98 % 0 mm
06:32 3.5 °C 3.2 °C 999.9 hPa Calm     98 % 0 mm
06:37 3.5 °C 3.2 °C 1000.2 hPa Calm     98 % 0 mm
06:42 3.4 °C 3.2 °C 1000.2 hPa Calm     98 % 0 mm
06:47 3.4 °C 3.2 °C 1000.2 hPa Calm     98 % 0 mm
06:52 3.4 °C 3.2 °C 1000.2 hPa Calm     98 % 0 mm
06:57 3.4 °C 3.1 °C 1000.2 hPa Calm     98 % 0 mm
07:02 3.4 °C 3.1 °C 1000.6 hPa Calm     98 % 0 mm
07:07 3.3 °C 3.1 °C 1000.6 hPa Calm     98 % 0 mm
07:12 3.3 °C 3.1 °C 1000.6 hPa Calm     98 % 0 mm
07:17 3.3 °C 3 °C 1000.6 hPa Calm     98 % 0 mm
07:22 3.3 °C 3 °C 1000.9 hPa Calm     98 % 0 mm
07:27 3.2 °C 2.9 °C 1000.9 hPa Calm     98 % 0 mm
07:32 3.2 °C 2.9 °C 1000.6 hPa Calm     98 % 0 mm
07:37 3.2 °C 2.9 °C 1000.9 hPa NNE 1.1 km/h 3.7 km/h 98 % 0 mm
07:42 3.2 °C 2.9 °C 1000.6 hPa NNE 1.3 km/h 3.7 km/h 98 % 0 mm
07:43 3.2 °C 2.9 °C 1000.6 hPa NNE 1.3 km/h 3.7 km/h 98 % 0 mm
07:48 3.2 °C 2.9 °C 1000.6 hPa Calm   3.2 km/h 98 % 0 mm
07:53 3.2 °C 2.9 °C 1000.6 hPa Calm   3.2 km/h 98 % 0 mm
07:58 3.2 °C 2.9 °C 1000.6 hPa Calm     98 % 0 mm
08:03 3.2 °C 2.9 °C 1000.6 hPa Calm   1.9 km/h 98 % 0 mm
08:08 3.2 °C 2.9 °C 1000.6 hPa Calm     98 % 0 mm
08:14 3.3 °C 3 °C 1000.6 hPa Calm     98 % 0 mm
08:19 3.3 °C 3.1 °C 1000.6 hPa Calm     98 % 0 mm
08:24 3.4 °C 3.1 °C 1000.6 hPa Calm     98 % 0 mm
08:29 3.5 °C 3.2 °C 1000.9 hPa Calm     98 % 0 mm
08:34 3.6 °C 3.3 °C 1000.9 hPa Calm     98 % 0 mm
08:39 3.6 °C 3.3 °C 1000.9 hPa Calm     98 % 0 mm
08:44 3.7 °C 3.4 °C 1001.2 hPa NNE 0.2 km/h 1.9 km/h 98 % 0 mm
08:49 3.8 °C 3.5 °C 1001.6 hPa Calm     98 % 0 mm
08:54 4 °C 3.7 °C 1001.6 hPa Calm   3.2 km/h 98 % 0 mm
08:59 4.3 °C 4.1 °C 1001.6 hPa Calm     98 % 0 mm
09:04 4.4 °C 4.1 °C 1001.6 hPa Calm     98 % 0 mm
09:09 4.6 °C 4.3 °C 1001.6 hPa South 0.3 km/h 1.9 km/h 98 % 0 mm
09:14 4.8 °C 4.5 °C 1001.6 hPa Calm   1.9 km/h 98 % 0 mm
09:19 5 °C 4.7 °C 1001.6 hPa South 2.6 km/h 3.2 km/h 98 % 0 mm
09:24 5.3 °C 5 °C 1001.6 hPa Calm     98 % 0 mm
09:29 5.6 °C 5.3 °C 1001.6 hPa SW 0.3 km/h 1.9 km/h 98 % 0 mm
09:34 5.9 °C 5.7 °C 1001.6 hPa WNW 1.3 km/h 5.6 km/h 98 % 0 mm
09:39 6.5 °C 6.3 °C 1001.9 hPa NNW 3.1 km/h 5.6 km/h 99 % 0 mm
09:44 6.4 °C 6.2 °C 1002.3 hPa NW 1.1 km/h 5.6 km/h 98 % 0 mm
09:49 6.3 °C 6 °C 1002.3 hPa WNW 3.5 km/h 9.3 km/h 98 % 0 mm
09:54 6.2 °C 5.9 °C 1002.6 hPa WNW 2.7 km/h 5.6 km/h 98 % 0 mm
10:00 6.2 °C 5.9 °C 1002.6 hPa WNW 1 km/h 3.2 km/h 98 % 0 mm
10:05 6.2 °C 5.9 °C 1002.6 hPa WNW 1 km/h 3.7 km/h 98 % 0 mm
10:10 6.1 °C 5.8 °C 1002.6 hPa WNW 3.7 km/h 6.4 km/h 98 % 0 mm
10:15 6 °C 5.7 °C 1002.6 hPa WNW 2.7 km/h 5.6 km/h 98 % 0 mm
10:20 6 °C 5.7 °C 1002.9 hPa Calm     98 % 0 mm
10:25 6.1 °C 5.8 °C 1002.9 hPa WNW 1.6 km/h 3.7 km/h 98 % 0 mm
10:30 6.2 °C 5.9 °C 1002.9 hPa WNW 1.1 km/h 1.9 km/h 98 % 0 mm
10:35 6.6 °C 6.3 °C 1002.9 hPa WNW 1.1 km/h 5.6 km/h 98 % 0 mm
10:40 7.1 °C 6.8 °C 1002.9 hPa West 5.5 km/h 5.6 km/h 98 % 0 mm
10:45 7.6 °C 7.3 °C 1002.9 hPa WSW 2.9 km/h 7.4 km/h 98 % 0 mm
10:50 8.2 °C 7.9 °C 1002.9 hPa West 1.3 km/h 5.6 km/h 98 % 0 mm
10:55 8.6 °C 8.4 °C 1002.9 hPa SSW 2.7 km/h 9.3 km/h 99 % 0 mm
11:00 9.1 °C 8.8 °C 1002.9 hPa SW 7.1 km/h 11.1 km/h 98 % 0 mm
11:05 9.6 °C 9.3 °C 1003.3 hPa WSW 4.8 km/h 5.6 km/h 98 % 0 mm
11:10 10 °C 9.7 °C 1002.9 hPa WNW 5.5 km/h 6.4 km/h 98 % 0 mm
11:15 10.2 °C 10.1 °C 1002.9 hPa WSW 3.1 km/h 5.6 km/h 99 % 0 mm
11:20 10.6 °C 10.4 °C 1002.9 hPa WSW 6 km/h 11.1 km/h 99 % 0 mm
11:25 10.8 °C 10.6 °C 1002.9 hPa WNW 4 km/h 7.4 km/h 99 % 0 mm
11:31 11.1 °C 10.9 °C 1002.9 hPa WNW 1.8 km/h 5.6 km/h 99 % 0 mm
11:36 11.3 °C 11.1 °C 1002.9 hPa SW 3.4 km/h 7.4 km/h 98 % 0 mm
11:41 11.6 °C 11.3 °C 1002.9 hPa WSW 1 km/h 3.7 km/h 98 % 0 mm
11:46 11.8 °C 11.4 °C 1002.6 hPa West 2.3 km/h 6.4 km/h 97 % 0 mm
11:51 12.2 °C 11.4 °C 1002.6 hPa West 7.4 km/h 9.3 km/h 95 % 0 mm
11:56 12.4 °C 11 °C 1002.6 hPa West 0.5 km/h 3.7 km/h 91 % 0 mm
12:01 12.7 °C 10.7 °C 1002.6 hPa WSW 6.8 km/h 7.4 km/h 88 % 0 mm
12:06 12.9 °C 10.6 °C 1002.6 hPa WSW 4.5 km/h 8 km/h 86 % 0 mm
12:11 13.1 °C 10.6 °C 1002.6 hPa WNW 3.7 km/h 11.1 km/h 85 % 0 mm
12:16 13.2 °C 10.3 °C 1002.6 hPa West 8.2 km/h 14.8 km/h 83 % 0 mm
12:21 13.3 °C 10.3 °C 1002.6 hPa SW 3.4 km/h 8 km/h 82 % 0 mm
12:26 13.5 °C 10.1 °C 1002.6 hPa WNW 6.1 km/h 9.3 km/h 80 % 0 mm
12:31 13.7 °C 9.7 °C 1002.9 hPa WNW 7.2 km/h 11.1 km/h 77 % 0 mm
12:36 13.8 °C 9.5 °C 1002.9 hPa WNW 4.2 km/h 9.7 km/h 75 % 0 mm
12:41 13.9 °C 9.1 °C 1002.9 hPa WNW 4.8 km/h 9.3 km/h 73 % 0 mm
12:46 13.9 °C 8.8 °C 1002.9 hPa NW 5.3 km/h 11.1 km/h 71 % 0 mm
12:51 14.1 °C 8.7 °C 1002.9 hPa WNW 5 km/h 13 km/h 70 % 0 mm
12:57 14.2 °C 8.6 °C 1002.9 hPa WNW 4.7 km/h 9.7 km/h 69 % 0 mm
13:02 14.3 °C 8.4 °C 1002.9 hPa West 4.2 km/h 7.4 km/h 68 % 0 mm
13:07 14.3 °C 8.3 °C 1002.9 hPa WSW 4.8 km/h 8 km/h 67 % 0 mm
13:12 14.6 °C 8.5 °C 1002.6 hPa West 1.6 km/h 3.7 km/h 67 % 0 mm
13:17 14.7 °C 8.7 °C 1002.6 hPa WSW 4.2 km/h 7.4 km/h 67 % 0 mm
13:22 14.8 °C 8.3 °C 1002.6 hPa WNW 5.6 km/h 11.1 km/h 65 % 0 mm
13:27 15 °C 8.2 °C 1002.6 hPa WNW 1.8 km/h 7.4 km/h 64 % 0 mm
13:32 15.1 °C 8.1 °C 1002.6 hPa WNW 3.2 km/h 6.4 km/h 63 % 0 mm
13:37 15.3 °C 8.1 °C 1002.6 hPa West 7.1 km/h 9.3 km/h 62 % 0 mm
13:42 15.4 °C 8.2 °C 1002.6 hPa WNW 4.5 km/h 11.1 km/h 62 % 0 mm
13:47 15.5 °C 7.8 °C 1002.6 hPa West 5.6 km/h 11.1 km/h 60 % 0 mm
13:52 15.6 °C 7.8 °C 1002.6 hPa WNW 6.3 km/h 8 km/h 60 % 0 mm
13:57 15.6 °C 7.4 °C 1002.6 hPa WNW 6 km/h 13 km/h 58 % 0 mm
14:02 15.6 °C 7.3 °C 1002.6 hPa WSW 8.7 km/h 18.5 km/h 58 % 0 mm
14:07 15.5 °C 7 °C 1002.6 hPa WSW 6.3 km/h 11.3 km/h 57 % 0 mm
14:13 15.4 °C 7.2 °C 1002.6 hPa WNW 6.6 km/h 14.8 km/h 58 % 0 mm
14:18 15.4 °C 7.2 °C 1002.6 hPa West 8.7 km/h 11.1 km/h 58 % 0 mm
14:23 15.4 °C 7.2 °C 1002.6 hPa WSW 8 km/h 9.7 km/h 58 % 0 mm
14:28 15.4 °C 6.9 °C 1002.6 hPa NW 10.5 km/h 18.5 km/h 57 % 0 mm
14:33 15.3 °C 7.1 °C 1002.6 hPa WNW 3.9 km/h 9.3 km/h 58 % 0 mm
14:38 15.2 °C 7.4 °C 1002.6 hPa WNW 4.2 km/h 5.6 km/h 60 % 0 mm
14:43 15.1 °C 7.2 °C 1002.6 hPa WNW 1.6 km/h 5.6 km/h 59 % 0 mm
14:48 15.1 °C 7.1 °C 1002.6 hPa WNW 2.4 km/h 5.6 km/h 59 % 0 mm
14:53 14.9 °C 6.7 °C 1002.6 hPa NNW 5 km/h 9.3 km/h 58 % 0 mm
14:58 14.8 °C 6.6 °C 1002.6 hPa WNW 8.2 km/h 16.1 km/h 58 % 0 mm
15:03 14.6 °C 6.4 °C 1002.9 hPa WNW 6 km/h 14.8 km/h 58 % 0 mm
15:08 14.3 °C 6.4 °C 1002.9 hPa West 5.1 km/h 9.3 km/h 59 % 0 mm
15:13 14 °C 6.1 °C 1002.9 hPa NW 4.8 km/h 12.9 km/h 59 % 0 mm
15:18 13.7 °C 5.9 °C 1002.9 hPa NW 4.8 km/h 14.5 km/h 59 % 0 mm
15:23 13.4 °C 5.8 °C 1002.9 hPa NNW 4.8 km/h 16.1 km/h 60 % 0 mm
15:28 13.1 °C 5.5 °C 1002.9 hPa North 4.8 km/h 16.7 km/h 60 % 0 mm
15:33 12.9 °C 5.6 °C 1002.9 hPa NW 3.2 km/h 12.9 km/h 61 % 0 mm
15:38 12.8 °C 5.7 °C 1002.9 hPa NW 4.8 km/h 12.9 km/h 62 % 0 mm
15:43 12.7 °C 5.3 °C 1002.9 hPa NW 4.8 km/h 12.9 km/h 61 % 0 mm
15:48 12.6 °C 5.2 °C 1002.9 hPa NW 3.2 km/h 11.3 km/h 61 % 0 mm
15:53 12.4 °C 5.1 °C 1002.9 hPa North 7.2 km/h 12.9 km/h 61 % 0 mm
15:58 12.2 °C 5.2 °C 1002.9 hPa North 6 km/h 11.1 km/h 62 % 0 mm
16:03 12.1 °C 5 °C 1003.3 hPa NW 6.1 km/h 9.3 km/h 62 % 0 mm
16:08 11.9 °C 5.1 °C 1003.3 hPa NW 1.6 km/h 8 km/h 63 % 0 mm
16:13 11.7 °C 4.9 °C 1003.3 hPa NW 4.8 km/h 19.3 km/h 63 % 0 mm
16:18 11.5 °C 4.7 °C 1003.3 hPa NW 8 km/h 16.1 km/h 63 % 0 mm
16:23 11.4 °C 4.4 °C 1003.6 hPa NW 4.8 km/h 16.1 km/h 62 % 0 mm
16:28 11.3 °C 4.6 °C 1003.6 hPa NW 3.2 km/h 9.7 km/h 63 % 0 mm
16:33 11.3 °C 4.6 °C 1003.9 hPa NW 3.2 km/h 11.3 km/h 63 % 0 mm
16:38 11.3 °C 4.5 °C 1003.9 hPa NW 4.8 km/h 11.3 km/h 63 % 0 mm
16:43 11.1 °C 4.6 °C 1004.3 hPa NW 1.6 km/h 9.7 km/h 64 % 0 mm
16:48 10.9 °C 4.4 °C 1004.3 hPa NW 4.8 km/h 8 km/h 64 % 0 mm
16:53 10.8 °C 4.3 °C 1004.3 hPa NNW 8 km/h 14.5 km/h 64 % 0 mm
16:58 10.7 °C 4.3 °C 1004.3 hPa NW 4.2 km/h 5.6 km/h 65 % 0 mm
17:03 10.6 °C 4.4 °C 1004.3 hPa NNW 6.8 km/h 13 km/h 66 % 0 mm
17:08 10.4 °C 4.6 °C 1004.3 hPa Calm   9.7 km/h 67 % 0 mm
17:13 10.3 °C 4.4 °C 1004.3 hPa WNW 3.2 km/h 8 km/h 67 % 0 mm
17:18 10.2 °C 4.3 °C 1004.3 hPa NW 1.6 km/h 8 km/h 67 % 0 mm
17:23 9.9 °C 4.3 °C 1004.3 hPa NNW 3.2 km/h 11.3 km/h 68 % 0 mm
17:28 9.8 °C 4.2 °C 1004.3 hPa NW 3.2 km/h 12.9 km/h 68 % 0 mm
17:33 9.7 °C 4.1 °C 1004.3 hPa NW 3.2 km/h 14.5 km/h 68 % 0 mm
17:38 9.5 °C 4.1 °C 1004.3 hPa NNW 3.2 km/h 8 km/h 69 % 0 mm
17:43 9.4 °C 3.8 °C 1004.3 hPa NW 3.2 km/h 12.9 km/h 68 % 0 mm
17:48 9.3 °C 3.8 °C 1004.3 hPa NW 3.2 km/h 6.4 km/h 69 % 0 mm
17:53 9.1 °C 3.7 °C 1004.3 hPa NW 4.8 km/h 11.3 km/h 69 % 0 mm
17:58 9 °C 3.2 °C 1004.3 hPa NNW 3.7 km/h 7.4 km/h 67 % 0 mm
18:03 8.9 °C 3.2 °C 1004.3 hPa NNW 6.8 km/h 13 km/h 67 % 0 mm
18:08 8.9 °C 2.9 °C 1004.3 hPa NW 2.6 km/h 5.6 km/h 66 % 0 mm
18:14 8.8 °C 2.8 °C 1004.3 hPa NW 1.8 km/h 3.7 km/h 66 % 0 mm
18:19 8.8 °C 2.8 °C 1004.3 hPa NNW 3.9 km/h 5.6 km/h 66 % 0 mm
18:24 8.7 °C 2.7 °C 1004.3 hPa NW 4.5 km/h 7.4 km/h 66 % 0 mm
18:29 8.6 °C 2.4 °C 1004.3 hPa WNW 3.7 km/h 7.4 km/h 65 % 0 mm
18:34 8.6 °C 2.2 °C 1004.3 hPa NW 2.3 km/h 7.4 km/h 64 % 0 mm
18:39 8.6 °C 2.1 °C 1004.3 hPa NW 2.4 km/h 5.6 km/h 64 % 0 mm
18:44 8.6 °C 2.1 °C 1004.6 hPa WNW 6.8 km/h 9.7 km/h 64 % 0 mm
18:49 8.6 °C 1.9 °C 1004.6 hPa NW 4 km/h 7.4 km/h 63 % 0 mm
18:54 8.6 °C 2.2 °C 1004.6 hPa NNW 4.7 km/h 9.3 km/h 64 % 0 mm
18:59 8.7 °C 2 °C 1004.6 hPa NW 4.2 km/h 7.4 km/h 63 % 0 mm
19:04 8.6 °C 1.9 °C 1004.6 hPa NW 4.3 km/h 11.1 km/h 63 % 0 mm
19:09 8.6 °C 1.9 °C 1004.6 hPa NW 5 km/h 11.1 km/h 63 % 0 mm
19:14 8.6 °C 2.3 °C 1005 hPa NNW 5.1 km/h 13 km/h 65 % 0 mm
19:19 8.4 °C 2.4 °C 1004.6 hPa NW 1.4 km/h 5.6 km/h 66 % 0 mm
19:24 8.3 °C 2.6 °C 1005 hPa NW 3.4 km/h 7.4 km/h 67 % 0 mm
19:25 8.3 °C 2.6 °C 1004.6 hPa NW 2.7 km/h 5.6 km/h 67 % 0 mm
19:30 8.2 °C 2.6 °C 1005 hPa North 2.1 km/h 5.6 km/h 68 % 0 mm
19:35 8 °C 2.7 °C 1005.3 hPa NW 1.9 km/h 3.7 km/h 69 % 0 mm
19:40 7.8 °C 2.9 °C 1005.3 hPa NNW 1.9 km/h 5.6 km/h 71 % 0 mm
19:45 7.7 °C 2.9 °C 1005.3 hPa NNW 5 km/h 9.3 km/h 72 % 0 mm
19:50 7.5 °C 2.9 °C 1005.3 hPa NNW 5.1 km/h 6.4 km/h 73 % 0 mm
19:55 7.3 °C 2.9 °C 1005.3 hPa NNE 7.4 km/h 11.1 km/h 74 % 0 mm
20:00 7.2 °C 3.1 °C 1005.3 hPa North 5.8 km/h 11.3 km/h 75 % 0 mm
20:05 7 °C 2.9 °C 1005.3 hPa North 11.1 km/h 18.5 km/h 75 % 0 mm
20:10 6.9 °C 2.8 °C 1005.3 hPa North 9.7 km/h 16.7 km/h 75 % 0 mm
20:15 6.9 °C 2.6 °C 1005.3 hPa NNW 8 km/h 11.1 km/h 74 % 0 mm
20:20 6.9 °C 2.4 °C 1005.3 hPa North 8.2 km/h 13 km/h 73 % 0 mm
20:25 6.9 °C 2.4 °C 1005.3 hPa NNE 7.9 km/h 11.1 km/h 73 % 0 mm
20:30 6.9 °C 2.4 °C 1005.3 hPa North 9.2 km/h 14.8 km/h 73 % 0 mm
20:35 6.9 °C 2.1 °C 1005.3 hPa NNE 7.9 km/h 11.3 km/h 71 % 0 mm
20:40 6.9 °C 2.1 °C 1005.6 hPa NNE 8.5 km/h 13 km/h 71 % 0 mm
20:45 6.9 °C 2.1 °C 1005.6 hPa North 5.6 km/h 7.4 km/h 71 % 0 mm
20:50 6.9 °C 2.1 °C 1005.6 hPa North 5.1 km/h 7.4 km/h 71 % 0 mm
20:55 6.9 °C 2 °C 1005.6 hPa NNW 4.7 km/h 7.4 km/h 71 % 0 mm
21:00 6.9 °C 2 °C 1005.6 hPa NNW 4.2 km/h 8 km/h 71 % 0 mm
21:05 6.8 °C 1.9 °C 1005.6 hPa NW 3.1 km/h 7.4 km/h 71 % 0 mm
21:10 6.8 °C 1.9 °C 1005.6 hPa NNW 4.5 km/h 8 km/h 71 % 0 mm
21:15 6.7 °C 2 °C 1005.6 hPa NNE 4 km/h 5.6 km/h 72 % 0 mm
21:20 6.7 °C 2 °C 1005.6 hPa NNE 5.3 km/h 11.3 km/h 72 % 0 mm
21:25 6.6 °C 2.1 °C 1005.3 hPa North 6.9 km/h 13 km/h 73 % 0 mm
21:30 6.5 °C 2 °C 1005.3 hPa North 6.3 km/h 11.1 km/h 73 % 0 mm
21:35 6.4 °C 1.9 °C 1005.3 hPa North 5.6 km/h 13 km/h 73 % 0 mm
21:40 6.4 °C 1.9 °C 1005.3 hPa NNE 6 km/h 11.3 km/h 73 % 0 mm
21:46 6.3 °C 2.1 °C 1005.6 hPa North 4.8 km/h 7.4 km/h 74 % 0 mm
21:51 6.2 °C 2.1 °C 1005.6 hPa NNE 6.9 km/h 9.3 km/h 75 % 0 mm
21:56 6.2 °C 2.1 °C 1005.3 hPa NNE 3.4 km/h 5.6 km/h 75 % 0 mm
22:01 6.1 °C 2.2 °C 1005.3 hPa North 1.1 km/h 5.6 km/h 76 % 0 mm
22:06 6.1 °C 2.2 °C 1005.3 hPa NNE 1.6 km/h 3.7 km/h 76 % 0 mm
22:11 5.9 °C 2.4 °C 1005.3 hPa NNE 1.8 km/h 3.7 km/h 78 % 0 mm
22:16 5.8 °C 2.4 °C 1005.3 hPa NE 1.8 km/h 5.6 km/h 79 % 0 mm
22:21 5.7 °C 2.4 °C 1005.3 hPa NE 1.6 km/h 3.7 km/h 79 % 0 mm
22:26 5.6 °C 2.3 °C 1005.3 hPa NE 0.5 km/h 3.7 km/h 79 % 0 mm
22:31 5.5 °C 2.2 °C 1005.3 hPa NE 2.9 km/h 5.6 km/h 79 % 0 mm
22:36 5.4 °C 2.1 °C 1005.3 hPa NNE 3.7 km/h 7.4 km/h 79 % 0 mm
22:41 5.3 °C 2.1 °C 1005 hPa NNE 8.5 km/h 11.1 km/h 80 % 0 mm
22:46 5.2 °C 2.1 °C 1005 hPa NE 10.9 km/h 14.8 km/h 80 % 0 mm
22:51 5.1 °C 1.8 °C 1005 hPa NNE 8.9 km/h 16.7 km/h 79 % 0 mm
22:56 5.1 °C 1.6 °C 1005 hPa NNE 11.4 km/h 16.7 km/h 78 % 0 mm
23:01 5.1 °C 1.6 °C 1005 hPa NNE 9.8 km/h 14.8 km/h 78 % 0 mm
23:06 5.1 °C 1.8 °C 1005 hPa NNE 10.8 km/h 13 km/h 79 % 0 mm
23:11 5.1 °C 1.8 °C 1005 hPa ENE 6.3 km/h 13 km/h 79 % 0 mm
23:16 5.1 °C 2.2 °C 1005 hPa ENE 2.7 km/h 5.6 km/h 82 % 0 mm
23:21 5 °C 2.2 °C 1005 hPa NNE 1 km/h 5.6 km/h 82 % 0 mm
23:26 4.9 °C 2.1 °C 1005.3 hPa NNE 0.2 km/h 1.6 km/h 82 % 0 mm
23:32 4.9 °C 1.9 °C 1005.3 hPa NNE 5.6 km/h 9.3 km/h 81 % 0 mm
23:37 4.8 °C 1.8 °C 1005.3 hPa NNE 2.4 km/h 7.4 km/h 81 % 0 mm
23:42 4.8 °C 1.8 °C 1005.3 hPa NNE 1 km/h 3.7 km/h 81 % 0 mm
23:47 4.7 °C 1.9 °C 1005 hPa ENE 2.3 km/h 5.6 km/h 82 % 0 mm
23:52 4.7 °C 2.1 °C 1005 hPa ENE 4.7 km/h 5.6 km/h 83 % 0 mm
23:57 4.7 °C 2.2 °C 1005.3 hPa ENE 5.6 km/h 5.6 km/h 84 % 0 mm
Crab Meadow Weather
Compliments of Weather Underground - 3 mb

Script developed by  Jim McMurry - jmcmurry@mwt.net Adapted for the template by  Wim van der Kuil - Leuven-Template.eu

Humidity: Humidity is the amount of water vapor in the air. The term "humidity" refers to relative humidity. Relative humidity is defined as the amount of water vapor in a sample of air compared to the maximum amount of water vapor the air can hold at any specific temperature in a form of 0 to 100%. Relative humidity is important in forecasting weather. Humidity indicates the likelihood of precipitation, dew, or fog. High humidity makes people feel hotter outside in the summer because it reduces the effectiveness of sweating to cool the body by preventing the evaporation of perspiration from the skin.